{"data":{"norad_id":65661,"intl_designator":"2025-211K","name":"STARLINK-35220","alt_names":[],"object_type":"PAYLOAD","status":"ACTIVE","operator":null,"country":"US","launch_date":"2025-09-19","launch_site_code":"AFWTR","launch_vehicle":null,"mission":null,"orbit_class":"UNKNOWN","rcs_meters":null,"size_class":null,"mass_kg":null,"dimensions":null,"purposes":["comms"],"wikipedia_slug":null,"has_3d_model":false,"image_url":null,"decayed_at":null,"tle_current":{"epoch":"2026-05-25T03:03:11.445120Z","epoch_age_seconds":70976,"freshness":"FRESH","line1":"1 65661U 25211K   26145.12721580  .00003851  00000+0  27076-3 0  9990","line2":"2 65661  97.4491 189.0461 0002116 115.3905 244.7542 15.05655201 38541","mean_motion":15.05655201,"eccentricity":0.0002116,"inclination_deg":97.4491,"raan_deg":189.0461,"arg_perigee_deg":115.3905,"mean_anomaly_deg":244.7542,"bstar":0.00027076,"rev_number":3854,"period_min":95.639426546238,"perigee_km":548.02931355954,"apogee_km":550.9610875068,"semimajor_km":6927.6322005332,"source":"CELESTRAK","updated_at":"2026-05-25T13:38:20.889715Z"}}}